C/2021 D2 ( ZTF )

Japanese version
Home page
Updated on December 1, 2021

---------------------------------------------------------------------

* Profile

Discovery Date February 19, 2021
Magnitude 19.5 mag
Discoverer Zwicky Transient Facility

* Pictures

* Orbital Elements

Epoch 2022 Jan. 21.0 TT = JDT 2459600.5
T 2022 Feb. 3.98309 TT                                  Rudenko
q   2.9462641            (2000.0)            P               Q
z  -0.0004854      Peri.  125.03088     -0.26330762     -0.52768840
 +/-0.0000054      Node   305.67855     +0.15105751     +0.80426029
e   1.0014302      Incl.   83.83073     +0.95281201     -0.27333192
From 400 observations 2021 Feb. 19-Sept. 1, mean residual 0".7.

* Finding Charts

* Magnitudes Graph

        m1 = 8.7 + 5 log d + 10.0 log r

---------------------------------------------------------------------

The orbital elements are published on M.P.E.C. 2021-R75.
The charts are made with StellaNavigator Ver.10 (AstroArts).
The magnitudes graphs are made with Comet for Windows.

---------------------------------------------------------------------

Copyright(C) Seiichi Yoshida (comet@aerith.net). All rights reserved.